星链-3277 (STARLINK-3277 )

导读

STARLINK-3277是美国太空探索技术公司(SpaceX)星链卫星互联网项目的一颗卫星,于2021年12月18日发射入轨。星链计划旨在搭建全球卫星互联网,为全球偏远地区、海洋航空等场景提供互联网接入服务,该卫星是星链组网中的一员,参与低轨星座的通信网络建设。

Basic Information
目录编号:
50182
目录名称:
STARLINK-3277
国际标识:
2021-125AC
轨道中心:
EARTH
卫星名称:
星链-3277
卫星全名:
星链-3277 (STARLINK-3277 )
卫星状态:
在轨 (已飞行1728 天)
发射日期:
2021-12-18 UTC
国别 :
美国 (US)
星等 :
--
This satellite is enrolled in the Space Conjunction Data Service (SCDS) and the current flight risk assessment level is: No High Risk
Orbit Information
数据来源 国际轨道数据 AOE轨道数据
星历时间 2026-09-11T23:06:35+0800
6小时前
查看轨道信息
2026-09-10T21:00:00+0800
1天前
查看轨道信息
半长轴 6848.889km 6848.883km
偏心率 0.000145 0.0001453
轨道倾角 53.160° 53.158°
近地点辐角 84.420° 70.956°
升交点赤经 120.115° 125.181°
平近点角 275.697° 46.929°
近地点 469.758km 469.75km
远地点 471.746km 471.742km
周期 94.013分钟 94.013分钟
每日圈数 15.316961 15.316981
Detailed Information
固有亮度:
5
最大亮度:
2.5
卫星平台:
Starlink v1.5
覆盖范围:
全球
运营商:
太空探索技术公司
运营商所在国:
美国
制造商(研发单位):
太空探索技术公司
制造商所在国:
美国
使用方式:
暂无
Satellite Introduction
星链(Starlink)计划是由太空探索技术公司(SpaceX)提出的一个巨型低轨卫星互联网星座项目,计划在2019年至2024年间在太空搭建由约1.2万颗卫星组成的“星链”网络,其中1584颗将部署在地球上空550千米处的近地轨道,并从2020年开始工作。该卫星仍在工作。
2D Orbit Map
3D Orbit Map
Orbit Altitude Analysis Chart
Orbit Inclination Analysis Chart
Orbit Comprehensive Analysis Chart
View Comprehensive Chart
Conjunction Data List
Event ID Objects TCA Miss Dist (km) Collision Risk Probability Collision Risk Index (CRI) Action
CDM_260913-234905-018206-541022
2026-09-13T
23:49:59+0000
1.735 km
极远距离
1.693974E-6 低风险 0.4
CDM_260906-120005-018206-773121
2026-09-06T
12:00:08+0000
2.556 km
极远距离
1.66976E-6 低风险 0.39
CDM_260912-071005-018206-831421
2026-09-12T
07:10:12+0000
2.535 km
极远距离
1.486494E-6 低风险 0.38
CDM_260912-090405-018206-970423
2026-09-12T
09:04:32+0000
2.850 km
极远距离
1.426866E-6 低风险 0.38
CDM_260914-012305-018206-541021
2026-09-14T
01:23:56+0000
2.548 km
极远距离
7.466569E-7 极低风险 0.32
Miss Distance Evolution Trend with All Objects
Collision Probability Evolution Trend with All Objects